Location: Asheville, NC
(35.6000°N, 82.5500°W)
Time: 16:31:28

N. Korean satellite - Pass Details

Date: 11 December 2017
Orbit: 460 x 512 km, 97.2° (Epoch: 21 March)

Event Time Altitude Azimuth Distance (km) Brightness Sun altitude
Rises 06:54:18 0° 17° (NNE) 2,620 10.2 -7.3°
Reaches altitude 10° 06:56:28 10° 23° (NNE) 1,724 9.4 -6.9°
Maximum altitude 07:00:04 48° 99° (E) 664 7.8 -6.3°
Drops below altitude 10° 07:03:35 10° 175° (S) 1,686 9.7 -5.6°
Sets 07:05:41 0° 181° (S) 2,554 10.6 -5.2°
